Skip Page Navigation
NASA JPL Caltech
NASA Logo - Jet Propulsion Laboratory + View the NASA Portal
+ Center for Near-Earth Object Studies
JPL Home Earth Solar System Stars & Galaxies Technology
JPL Solar System Dynamics
BODIES ORBITS EPHEMERIDES TOOLS PHYSICAL DATA DISCOVERY FAQ SITE MAP
JPL Small-Body Database Browser
Search: [ help ]  
13392 (1999 KK15)
Classification: Main-belt Asteroid          SPK-ID: 2013392
Ephemeris | Orbit Diagram | Orbital Elements | Mission Design | Physical Parameters | Discovery Circumstances | Close-Approach Data ]

[ hide orbit diagram ]

For accurate long-term ephemerides, please instead use our Horizons system.This orbit viewer was implemented using two-body methods, and hence should not be used for determining accurate long-term trajectories (over several years or decades) or planetary encounter circumstances.


[ revert to old Java-based viewer ]

Orbital Elements at Epoch 2459000.5 (2020-May-31.0) TDB
Reference: JPL 23 (heliocentric ecliptic J2000)
 Element Value Uncertainty (1-sigma)   Units 
e .1729808906821887 2.9767e-08  
a 2.5931789180018 1.1049e-08 au
q 2.144608519067574 7.8882e-08 au
i 13.97707906435464 4.5488e-06 deg
node 167.5182998054424 1.5789e-05 deg
peri 145.593213826905 2.2388e-05 deg
M 357.1006020102755 1.4384e-05 deg
tp 2459012.784358520505
(2020-Jun-12.28435852)
6.0937e-05 TDB
period 1525.271481547071
4.18
9.7481e-06
2.669e-08
d
yr
n .2360235566948743 1.5084e-09 deg/d
Q 3.041749316936026 1.296e-08 au
  Orbit Determination Parameters
   # obs. used (total)      1412  
   data-arc span      10552 days (28.89 yr)  
   first obs. used      1991-09-13  
   last obs. used      2020-08-03  
   planetary ephem.      DE431  
   SB-pert. ephem.      SB431-N16  
   condition code      0  
   norm. resid. RMS      .53079  
   source      ORB  
   producer      Otto Matic  
   solution date      2020-Aug-25 00:42:56  

Additional Information
 Earth MOID = 1.14617 au 
 Jupiter MOID = 2.36078 au 
 T_jup = 3.356 
[ show covariance matrix ]

Ephemeris | Orbit Diagram | Orbital Elements | Mission Design | Physical Parameters | Discovery Circumstances | Close-Approach Data ]

Physical Parameter Table
Parameter Symbol Value Units Sigma Reference Notes
absolute magnitude H 14.3   n/a PDS3 (MPC 37593)  

13392 (1999 KK15)          Discovered 1999-May-20 by LINEAR at Socorro
Reference: 20000124/Numbers.arcLast Updated: 2004-04-19

[ show close-approach data ]
Alternate Designations
 1999 KK15 = 1991 SP2 = 1998 FO130 
Ephemeris | Orbit Diagram | Orbital Elements | Mission Design | Physical Parameters | Discovery Circumstances | Close-Approach Data ]
ABOUT SSD CREDITS/AWARDS PRIVACY/COPYRIGHT GLOSSARY LINKS
FirstGov 2020-Oct-20 04:19 UT
(server date/time)  
NASA Home Page
Site Manager:   Ryan S. Park
Webmaster  Alan B. Chamberlin